Location: Roland
(31.1349°N, 85.4372°W)
Time: 13:25:39
(UTC+00:00)

Explorer 11/Cluster Stage 4 - Pass Details

Date: 23 April 2021
Orbit: 467 x 1257 km, 28.8° (Epoch: 15 May)

Event Time Altitude Azimuth Distance (km) Brightness Sun altitude
Exits shadow 09:25:10 13° 156° (SSE) 1,433 7.9 -20.5°
Drops below altitude 10° 09:26:52 10° 127° (SE) 1,605 8.5 -20.2°
Sets 09:29:59 0° 98° (E) 2,497 10.0 -19.6°
